2017-008N

Last updated on Wed Mar 01 2017 00:15:03 GMT+0000 (Coordinated Universal Time)

1 41960U 17008N 17059.68819841 .00001637 00000-0 76151-4 0 9994 2 41960 97.5092 121.2878 0008643 202.1326 157.9543 15.21364251 1959
UTC large
Height (km)
Speed (km/s)
/
Latitude / Longitude
Inclination (degrees)
Orbital Period (minutes)
Azimuth
Elevation
Range (km)
Doppler Factor

Next 0 passes for location: London (51.5072 / 0.1276)

Sorry there are no passes over London.
2017-008N